Simultaneous Nadir Overpasses (SNOs) Predictions

Prediction of SNOs between METOP-B and NOAA-19 Satellite Orbit:

Table of predicted SNOs for the next 14.0 days since TLE Epoch: 10/30/2021
Index Date (METOP-B) Time (METOP-B) Lat,Lon (METOP-B) SZA (METOP-B ) Date (NOAA-19) Time (NOAA-19) Lat,Lon (NOAA-19) SZA (NOAA-19 ) Distance(km) Time Diff (sec)
1 11/03/2021 01:16:45 80.68,-168.40 97.34 11/03/2021 01:15:41 80.68,-168.48 97.30 1.56 64
2 11/03/2021 02:07:27 -80.67, -1.26 82.68 11/03/2021 02:06:40 -80.68, -1.39 82.70 2.81 47
3 11/03/2021 02:58:07 80.67, 166.12 97.34 11/03/2021 02:57:41 80.68, 166.09 97.33 0.68 26
4 11/03/2021 03:48:48 -80.68, -26.40 82.63 11/03/2021 03:48:39 -80.67, -26.46 82.65 1.90 9
5 11/03/2021 04:39:29 80.66, 140.64 97.34 11/03/2021 04:39:41 80.67, 140.66 97.36 1.11 12
6 11/03/2021 05:30:10 -80.67, -51.88 82.63 11/03/2021 05:30:39 -80.67, -51.88 82.63 0.84 29
7 11/03/2021 06:20:51 80.65, 115.16 97.34 11/03/2021 06:21:41 80.67, 115.23 97.38 2.18 50



Historial Predications of SNOs between METOP-B and NOAA-19
